When you browse on this site, cookies collect data to enhance your experience and personalize the content and advertising you see.
Visit our Privacy Policy to learn more. By continuing to use the site, you agree to this use of cookies and data.
  • In Lithuania
  • List of Countries
  • For 7 days
  • Water Temperature
  • Weather Map
  • Weather Widgets
  • user-avatar
    Login

    Hourly Weather Altaj

    Today, 17 February, Monday

    Time Temperature Precipitation Wind Pressure Humidity
    00:00 -15°C° 0 mm 1 mps 568 mmHg 39%
    01:00 -16°C° 0 mm 1 mps 567 mmHg 39%
    02:00 -16°C° 0 mm 1 mps 567 mmHg 40%
    03:00 -16°C° 0 mm 1 mps 567 mmHg 41%
    04:00 -17°C° 0 mm 1 mps 567 mmHg 41%
    05:00 -17°C° 0 mm 1 mps 567 mmHg 41%
    06:00 -17°C° 0 mm 1 mps 567 mmHg 41%
    07:00 -16°C° 0 mm 1 mps 567 mmHg 45%
    08:00 -15°C° 0 mm 0 mps 568 mmHg 48%
    09:00 -14°C° 0 mm 0 mps 568 mmHg 51%
    10:00 -13°C° 0 mm 1 mps 568 mmHg 52%
    11:00 -12°C° 0 mm 1 mps 568 mmHg 53%
    12:00 -14°C° 0 mm 2 mps 568 mmHg 54%
    13:00 -12°C° 0 mm 1 mps 567 mmHg 57%
    14:00 -13°C° 0 mm 1 mps 567 mmHg 60%
    15:00 -13°C° 0 mm 1 mps 566 mmHg 63%
    16:00 -14°C° 0 mm 1 mps 566 mmHg 58%
    17:00 -16°C° 0 mm 1 mps 565 mmHg 54%
    18:00 -17°C° 0 mm 0 mps 564 mmHg 50%
    19:00 -17°C° 0 mm 0 mps 564 mmHg 50%
    20:00 -18°C° 0 mm 0 mps 564 mmHg 49%
    21:00 -18°C° 0 mm 0 mps 564 mmHg 49%
    22:00 -18°C° 0 mm 0 mps 563 mmHg 49%
    23:00 -18°C° 0 mm 0 mps 563 mmHg 49%

    Tomorrow, 18 February, Tuesday

    Time Temperature Precipitation Wind Pressure Humidity
    00:00 -19°C° 0 mm 1 mps 563 mmHg 48%
    01:00 -19°C° 0 mm 1 mps 562 mmHg 48%
    02:00 -19°C° 0 mm 1 mps 562 mmHg 48%
    03:00 -19°C° 0 mm 1 mps 562 mmHg 48%
    04:00 -19°C° 0 mm 0 mps 562 mmHg 47%
    05:00 -19°C° 0 mm 0 mps 562 mmHg 46%
    06:00 -19°C° 0 mm 0 mps 561 mmHg 45%
    07:00 -18°C° 0 mm 0 mps 562 mmHg 47%
    08:00 -17°C° 0 mm 0 mps 563 mmHg 48%
    09:00 -16°C° 0 mm 0 mps 563 mmHg 49%
    10:00 -15°C° 0 mm 0 mps 563 mmHg 51%
    11:00 -15°C° 0 mm 1 mps 563 mmHg 52%
    12:00 -14°C° 0 mm 1 mps 563 mmHg 54%
    13:00 -14°C° 0 mm 1 mps 563 mmHg 58%
    14:00 -15°C° 0 mm 1 mps 562 mmHg 62%
    15:00 -15°C° 0 mm 1 mps 562 mmHg 67%
    16:00 -16°C° 0 mm 1 mps 561 mmHg 63%
    17:00 -17°C° 0 mm 1 mps 561 mmHg 59%
    18:00 -18°C° 0 mm 0 mps 560 mmHg 56%
    19:00 -18°C° 0 mm 0 mps 560 mmHg 55%
    20:00 -18°C° 0 mm 0 mps 560 mmHg 54%
    21:00 -18°C° 0 mm 0 mps 560 mmHg 53%
    22:00 -18°C° 0 mm 1 mps 560 mmHg 52%
    23:00 -18°C° 0 mm 1 mps 559 mmHg 52%

    Day after tomorrow, 19 February, Wednesday

    Time Temperature Precipitation Wind Pressure Humidity
    00:00 -18°C° 0 mm 1 mps 559 mmHg 52%
    01:00 -18°C° 0 mm 1 mps 559 mmHg 52%
    02:00 -18°C° 0 mm 1 mps 559 mmHg 53%
    03:00 -18°C° 0 mm 1 mps 559 mmHg 54%
    04:00 -18°C° 0 mm 1 mps 559 mmHg 55%
    05:00 -18°C° 0 mm 0 mps 559 mmHg 56%
    06:00 -18°C° 0 mm 0 mps 559 mmHg 57%
    07:00 -17°C° 0 mm 1 mps 560 mmHg 59%
    08:00 -16°C° 0 mm 1 mps 561 mmHg 61%
    09:00 -15°C° 0 mm 1 mps 562 mmHg 63%
    10:00 -18°C° 0 mm 2 mps 562 mmHg 66%
    11:00 -18°C° 0 mm 2 mps 562 mmHg 68%
    12:00 -19°C° 0 mm 3 mps 561 mmHg 70%
    13:00 -21°C° 0 mm 3 mps 561 mmHg 73%
    14:00 -19°C° 0 mm 2 mps 561 mmHg 76%
    15:00 -20°C° 0 mm 2 mps 561 mmHg 79%
    16:00 -21°C° 0 mm 2 mps 561 mmHg 78%
    17:00 -23°C° 0 mm 2 mps 561 mmHg 77%
    18:00 -20°C° 0 mm 1 mps 561 mmHg 76%
    19:00 -20°C° 0 mm 1 mps 561 mmHg 76%
    20:00 -20°C° 0 mm 1 mps 561 mmHg 76%
    21:00 -20°C° 0 mm 1 mps 561 mmHg 75%
    22:00 -20°C° 0 mm 1 mps 562 mmHg 76%
    23:00 -20°C° 0 mm 1 mps 562 mmHg 76%

    20 February, Thursday

    Time Temperature Precipitation Wind Pressure Humidity
    00:00 -20°C° 0 mm 1 mps 562 mmHg 77%
    01:00 -20°C° 0 mm 1 mps 562 mmHg 77%
    02:00 -20°C° 0 mm 1 mps 562 mmHg 77%
    03:00 -20°C° 0 mm 1 mps 562 mmHg 77%
    04:00 -20°C° 0 mm 1 mps 562 mmHg 79%
    05:00 -21°C° 0 mm 1 mps 562 mmHg 81%
    06:00 -21°C° 0 mm 1 mps 562 mmHg 83%
    07:00 -20°C° 0 mm 1 mps 563 mmHg 82%
    08:00 -19°C° 0 mm 1 mps 564 mmHg 82%
    09:00 -18°C° 0 mm 1 mps 564 mmHg 81%
    10:00 -18°C° 0 mm 1 mps 565 mmHg 78%
    11:00 -17°C° 0 mm 1 mps 565 mmHg 75%
    12:00 -19°C° 0 mm 2 mps 565 mmHg 72%
    13:00 -17°C° 0 mm 1 mps 565 mmHg 73%
    14:00 -17°C° 0 mm 1 mps 565 mmHg 75%
    15:00 -17°C° 0 mm 1 mps 565 mmHg 77%
    16:00 -18°C° 0 mm 1 mps 564 mmHg 76%
    17:00 -19°C° 0 mm 1 mps 564 mmHg 75%
    18:00 -21°C° 0 mm 1 mps 564 mmHg 75%
    19:00 -21°C° 0 mm 1 mps 564 mmHg 73%
    20:00 -21°C° 0 mm 1 mps 564 mmHg 71%
    21:00 -21°C° 0 mm 1 mps 564 mmHg 70%
    22:00 -21°C° 0 mm 1 mps 564 mmHg 67%
    23:00 -21°C° 0 mm 1 mps 564 mmHg 65%

    21 February, Friday

    Time Temperature Precipitation Wind Pressure Humidity
    00:00 -21°C° 0 mm 1 mps 564 mmHg 63%
    01:00 -20°C° 0 mm 1 mps 564 mmHg 60%
    02:00 -20°C° 0 mm 1 mps 564 mmHg 58%
    03:00 -20°C° 0 mm 1 mps 564 mmHg 55%
    04:00 -20°C° 0 mm 1 mps 564 mmHg 53%
    05:00 -20°C° 0 mm 1 mps 564 mmHg 51%
    06:00 -19°C° 0 mm 1 mps 564 mmHg 48%
    07:00 -18°C° 0 mm 1 mps 565 mmHg 50%
    08:00 -17°C° 0 mm 1 mps 566 mmHg 51%
    09:00 -15°C° 0 mm 1 mps 567 mmHg 53%
    10:00 -14°C° 0 mm 1 mps 567 mmHg 53%
    11:00 -13°C° 0 mm 1 mps 567 mmHg 53%
    12:00 -12°C° 0 mm 1 mps 567 mmHg 52%
    19:00 -16°C° 0 mm 2 mps 563 mmHg 52%
    20:00 -16°C° 0 mm 2 mps 563 mmHg 51%
    21:00 -14°C° 0 mm 1 mps 563 mmHg 51%
    22:00 -15°C° 0 mm 1 mps 563 mmHg 51%
    23:00 -15°C° 0 mm 1 mps 562 mmHg 52%

    22 February, Saturday

    Time Temperature Precipitation Wind Pressure Humidity
    00:00 -15°C° 0 mm 1 mps 562 mmHg 52%
    01:00 -15°C° 0 mm 1 mps 561 mmHg 53%
    02:00 -15°C° 0 mm 1 mps 561 mmHg 53%
    03:00 -15°C° 0 mm 1 mps 561 mmHg 53%
    04:00 -14°C° 0 mm 1 mps 561 mmHg 53%
    05:00 -14°C° 0 mm 1 mps 561 mmHg 53%
    06:00 -14°C° 0 mm 1 mps 561 mmHg 53%
    07:00 -13°C° 0 mm 1 mps 561 mmHg 56%
    08:00 -12°C° 0 mm 1 mps 561 mmHg 58%
    09:00 -11°C° 0 mm 1 mps 562 mmHg 61%
    10:00 -10°C° 0 mm 1 mps 562 mmHg 61%
    11:00 -9°C° 0 mm 1 mps 562 mmHg 60%
    12:00 -8°C° 0 mm 1 mps 562 mmHg 60%
    13:00 -8°C° 0 mm 1 mps 561 mmHg 62%
    14:00 -8°C° 0 mm 1 mps 561 mmHg 65%
    15:00 -8°C° 0 mm 1 mps 561 mmHg 67%
    16:00 -9°C° 0 mm 1 mps 560 mmHg 64%
    17:00 -10°C° 0 mm 1 mps 560 mmHg 62%
    18:00 -11°C° 0 mm 1 mps 559 mmHg 59%
    19:00 -12°C° 0 mm 1 mps 559 mmHg 61%
    20:00 -13°C° 0 mm 1 mps 559 mmHg 62%
    21:00 -13°C° 0 mm 1 mps 559 mmHg 63%
    22:00 -14°C° 0 mm 1 mps 559 mmHg 66%
    23:00 -15°C° 0 mm 1 mps 559 mmHg 68%
    Show more